Wetbulb
46.30 45.88 45.62 45.81 45.52 45.16 44.75 45.29 45.08 44.48 43.88 43.85 44.12 44.72 45.73 45.12 44.81 41.00 39.16 39.89 37.72 33.20 33.83 36.98 36.36 32.66 31.93 30.68 26.69 29.62 29.14 30.91 29.38 26.92 27.61 26.69 27.56 29.30 28.48 28.97 27.35 24.89 24.67 23.96 26.23 22.76 19.95 29.53 31.65 26.91 29.38 31.32 29.86 28.47
45.65 45.49 45.33 45.20 45.29 44.74 44.49 45.03 44.86 44.67 44.13 43.85 44.47 44.75 45.69 45.57 45.17 42.40 37.75 39.76 38.78 35.42 34.88 37.32 37.80 38.69 38.22 35.76 32.78 32.58 31.18 31.83 31.78 28.64 28.70 29.34 28.48 29.22 28.27 23.09 31.33 24.93 27.20 25.45 25.29 23.88 28.98 29.61 29.01 30.83 32.20 30.72 29.84 28.08
45.37 45.14 45.09 44.94 44.73 44.48 44.11 44.47 44.33 44.43 43.65 43.79 44.61 45.38 45.66 45.34 44.58 41.57 38.17 37.45 37.73 35.58 35.34 36.14 35.75 38.33 40.33 39.52 39.51 32.70 33.20 35.42 33.15 34.24 32.22 31.21 28.48 31.04 26.65 26.52 28.64 30.72 32.00 26.51 26.31 27.47 27.64 28.16 28.55 29.42 30.84 30.55 29.72 28.68
45.34 45.11 44.96 44.88 44.67 44.42 43.93 44.21 43.72 43.97 44.09 44.55 45.13 45.72 45.67 44.67 43.79 41.65 37.49 38.01 37.38 35.71 31.98 34.44 40.48 38.28 40.43 40.49 39.57 38.32 37.05 35.67 34.91 34.25 32.48 30.87 30.28 32.94 30.31 30.35 29.33 30.55 30.70 27.92 26.76 28.91 28.03 27.77 28.03 28.50 28.26 28.08 26.65 26.69
45.30 44.77 44.46 44.60 44.36 44.15 44.14 43.79 42.83 42.97 44.15 44.66 45.28 45.28 44.59 44.04 43.41 40.74 39.40 39.10 38.84 36.14 31.02 33.41 37.45 39.67 40.20 40.44 38.49 38.25 36.61 34.10 33.02 31.85 31.11 30.30 32.43 32.39 32.73 30.52 28.07 31.12 28.46 26.09 25.35 30.41 29.41 27.86 28.55 29.08 27.60 25.87 25.79 24.76
44.94 44.50 44.48 44.38 44.36 44.19 43.88 43.60 42.78 41.85 44.13 44.78 45.07 44.69 43.86 42.18 39.98 37.96 32.89 38.95 39.97 37.93 34.35 30.10 35.45 38.51 38.86 38.73 37.28 36.33 35.78 33.68 33.48 32.27 31.29 32.14 33.04 32.53 28.31 27.18 30.25 32.12 33.18 34.22 30.37 32.60 31.15 29.95 28.68 28.23 26.56 25.71 25.49 24.15
44.44 44.51 44.46 44.25 44.02 43.75 43.63 42.61 42.60 43.52 44.07 44.63 43.75 43.43 43.30 43.35 40.72 35.20 33.40 37.97 41.50 38.67 33.62 30.60 32.02 36.86 38.85 38.23 35.44 34.03 34.25 33.10 33.31 32.24 31.84 31.65 32.73 32.31 28.05 26.99 30.12 32.30 33.05 32.20 31.17 29.84 26.33 27.30 25.56 27.00 26.43 26.02 24.94 23.57
44.38 44.31 43.86 43.73 43.65 43.48 42.60 42.16 42.16 43.29 43.92 43.83 43.62 43.19 42.94 42.51 41.49 38.36 40.94 43.24 40.69 35.14 33.44 28.80 30.03 33.12 37.32 31.41 31.75 32.72 32.54 32.54 32.10 31.49 32.24 32.22 32.24 31.43 28.44 29.09 31.15 32.16 31.76 30.70 31.58 32.12 30.15 28.01 26.23 25.06 24.88 23.94 22.29 21.34
43.91 43.75 43.22 43.47 43.49 43.01 42.67 42.43 42.32 43.26 43.66 43.20 42.30 40.92 37.88 35.06 35.12 38.66 43.67 41.09 40.51 35.37 28.29 27.38 27.73 26.51 34.90 31.67 31.89 32.05 31.58 28.63 30.47 29.89 30.79 31.55 29.01 27.52 30.42 29.88 30.58 31.37 31.15 30.08 28.63 27.82 26.98 25.59 24.06 23.52 23.75 23.29 21.96 21.20
43.21 43.04 42.93 42.90 42.81 42.65 42.48 42.37 42.65 43.02 43.07 40.70 36.84 31.38 27.48 34.29 41.52 41.27 36.48 31.57 31.96 33.88 32.75 27.30 28.38 29.99 32.04 29.89 28.82 28.91 28.20 27.90 26.76 28.87 31.00 29.14 28.94 29.87 32.10 32.88 33.01 33.01 31.54 29.72 26.07 24.27 24.57 23.85 23.57 23.24 23.28 23.65 23.28 21.71
43.36 42.88 42.82 42.71 42.53 42.51 42.00 42.42 42.90 42.73 39.46 34.07 31.63 30.30 35.36 39.98 38.45 34.05 27.18 26.05 29.05 26.62 29.73 28.53 29.59 29.28 32.57 28.90 27.97 28.53 27.45 27.09 23.31 27.27 28.08 25.69 25.52 28.54 30.92 32.05 33.08 32.60 31.15 30.81 31.17 30.10 28.78 27.38 25.33 23.84 22.86 22.44 21.67 20.71
43.24 42.97 42.95 42.62 42.46 42.35 42.35 41.85 41.65 36.05 34.16 34.33 36.10 39.79 39.69 34.87 31.67 26.92 26.19 28.42 26.99 25.00 28.91 28.31 29.20 31.62 31.26 32.49 30.33 28.37 25.96 25.63 22.22 27.73 26.94 22.91 27.02 27.85 30.44 31.47 32.44 31.60 30.02 29.34 29.69 28.13 27.48 26.84 26.32 24.64 22.76 20.75 19.90 18.26
43.09 42.89 42.88 42.57 42.50 42.23 41.80 41.00 40.67 41.37 40.47 38.68 34.83 32.25 29.01 29.15 22.94 19.71 20.25 23.69 24.82 27.35 27.76 29.02 28.12 31.52 30.37 30.65 26.16 27.31 22.91 22.27 26.58 25.83 21.82 25.18 25.80 27.20 28.48 29.90 30.27 30.58 29.73 27.57 26.31 26.64 25.76 24.42 24.05 22.66 19.91 18.89 16.34 13.80
42.39 42.52 42.67 42.45 42.26 42.17 40.65 41.95 41.79 39.00 34.07 27.90 23.90 23.28 21.46 20.55 22.32 22.46 25.40 25.97 26.99 27.30 27.75 28.39 29.00 29.81 27.78 26.62 22.56 22.55 22.82 24.18 18.91 17.86 20.47 26.83 26.10 26.45 27.04 27.46 27.35 26.52 25.14 24.68 23.73 22.90 21.13 20.00 17.05 15.88 14.74 13.71 11.27 8.53
42.12 42.34 42.62 42.07 41.88 41.69 41.34 40.13 39.08 36.34 30.90 26.42 25.14 18.63 22.89 23.93 25.45 28.28 28.79 30.36 30.02 28.65 29.62 28.42 27.83 28.42 23.65 22.51 22.79 22.10 20.68 18.32 20.15 21.07 24.99 26.86 24.04 25.05 24.57 24.15 22.81 21.57 19.38 19.81 19.80 18.09 15.36 13.27 12.98 9.20 9.30 10.52 9.91 5.65
42.34 41.77 39.93 41.64 41.58 40.95 39.55 37.55 35.15 33.64 29.17 26.19 24.82 23.77 26.61 27.47 27.81 29.98 31.28 31.15 30.16 29.25 28.88 29.40 24.50 22.15 22.10 22.86 21.44 19.55 19.80 17.62 22.69 24.59 25.74 24.06 22.59 23.29 22.58 22.15 21.21 19.30 19.21 17.40 17.05 16.40 13.86 12.24 12.34 11.64 6.57 8.15 6.15 6.99
39.87 36.28 41.38 41.48 40.66 39.97 38.67 32.95 31.59 28.41 26.13 24.08 23.98 27.42 26.61 25.67 27.54 31.16 32.31 31.92 29.57 30.15 25.21 25.44 19.46 20.75 25.03 21.13 19.87 22.69 20.40 24.27 25.62 25.74 29.01 24.22 22.22 21.43 20.04 18.73 16.90 16.86 16.33 15.91 14.45 14.70 13.27 11.57 10.20 10.64 10.13 8.45 7.73 8.74
36.39 39.68 40.49 39.98 37.93 36.27 33.24 31.70 28.88 27.05 23.26 22.46 23.77 25.69 26.89 27.43 28.49 30.34 31.26 32.39 33.10 31.17 30.42 25.68 27.34 22.17 17.74 18.56 20.35 24.04 23.70 22.69 26.39 26.91 25.23 19.21 18.45 18.94 20.73 19.83 16.44 17.04 15.88 14.02 14.83 12.65 11.13 10.74 12.63 14.03 13.76 11.86 10.84 11.58
38.55 38.78 40.13 39.24 35.88 32.09 28.78 28.45 29.48 23.07 22.98 23.45 23.03 25.15 28.11 28.11 29.01 30.66 31.77 32.00 33.58 33.64 30.38 26.90 23.26 22.62 23.07 23.71 25.54 24.85 22.60 26.04 27.50 25.65 19.61 14.25 15.07 17.39 16.36 16.11 14.81 14.73 14.89 14.18 14.89 15.72 15.19 15.11 17.33 16.45 16.17 14.80 15.39 16.14
40.52 39.85 39.44 38.80 36.57 29.46 27.03 26.83 30.41 27.15 23.48 24.26 26.29 25.75 25.51 26.57 28.89 29.01 29.89 31.14 32.37 32.95 30.08 27.44 25.60 26.26 26.10 27.18 26.29 28.67 27.84 25.98 23.35 24.43 24.87 18.81 15.99 15.79 16.56 17.35 17.78 16.42 15.31 15.30 16.40 15.00 15.42 15.52 16.86 16.87 17.07 17.18 17.50 18.05
36.72 36.16 37.16 34.30 31.36 29.76 27.93 26.88 25.42 25.68 25.90 24.06 26.41 26.86 24.87 27.52 25.16 24.12 25.14 30.81 29.99 28.97 28.68 29.37 28.44 25.00 21.38 23.14 25.70 25.05 24.68 25.47 25.69 27.47 26.41 20.13 15.27 17.85 16.52 17.21 16.66 17.10 16.78 16.35 16.36 15.79 15.34 17.18 17.89 18.03 17.59 17.92 18.11 18.95
35.49 37.11 30.98 32.04 28.26 28.09 27.67 30.01 26.81 26.84 25.47 26.57 25.76 26.50 23.41 22.12 22.78 24.37 26.94 25.44 25.38 24.60 25.34 24.96 25.58 23.71 24.73 26.36 24.31 24.21 23.57 23.69 21.78 18.87 16.88 17.19 16.87 16.77 16.67 16.76 17.18 16.35 16.95 16.73 17.66 17.14 17.26 18.05 18.63 18.68 18.36 18.46 10.91 15.49
35.54 33.00 28.90 27.12 21.47 19.65 22.95 31.13 25.11 26.34 18.41 22.64 25.38 22.53 22.65 22.81 23.50 27.71 23.62 25.29 24.04 22.01 23.87 24.12 24.08 25.29 23.94 22.44 23.79 23.49 23.01 22.72 21.50 20.45 19.08 19.42 19.09 18.91 18.36 17.64 18.86 17.12 16.48 16.74 18.54 18.00 17.66 14.31 14.32 17.46 16.23 13.63 14.74 14.42
33.79 25.49 19.56 17.68 18.81 14.10 23.21 20.98 27.04 25.39 24.95 23.26 19.62 18.53 20.98 23.50 28.70 25.33 22.84 20.63 20.68 21.38 24.06 25.43 25.28 24.67 25.11 24.96 23.27 22.60 22.28 22.27 19.98 19.07 19.64 19.37 18.12 17.88 18.92 18.61 18.92 19.42 19.92 18.76 18.73 18.76 17.17 16.81 11.47 14.36 13.66 13.70 13.49 15.30
20.66 16.90 14.69 7.66 23.04 15.30 16.98 13.98 23.39 21.25 15.45 19.98 19.74 19.58 23.64 26.62 22.84 21.09 20.02 18.36 21.88 24.35 24.14 24.54 25.24 25.05 24.83 23.52 21.45 21.72 22.23 21.85 20.92 19.22 18.85 19.78 18.11 18.14 17.63 18.16 18.15 18.83 19.44 18.11 16.46 16.70 15.14 14.21 15.33 14.98 13.82 15.11 14.25 12.25
10.50 15.70 11.85 11.51 11.23 14.87 15.71 9.47 16.15 17.41 12.02 19.29 20.28 20.42 21.67 20.25 18.69 16.91 17.60 15.99 16.86 21.75 21.33 22.26 24.31 24.87 23.89 24.06 22.69 21.98 22.21 21.89 21.46 19.86 19.08 19.68 19.62 18.78 17.37 17.18 17.54 18.67 18.28 19.56 17.26 17.47 16.82 15.14 15.16 13.97 13.99 9.53 7.49 12.27
9.14 11.42 21.56 25.43 24.30 24.16 17.79 19.28 20.81 17.19 13.87 15.45 15.61 15.95 15.53 10.70 12.35 14.76 16.92 17.54 17.08 19.38 21.04 22.41 23.23 26.06 25.11 21.57 19.26 18.36 18.76 18.79 18.98 18.05 16.47 15.72 15.93 18.17 19.52 18.14 17.74 18.82 16.92 18.49 18.85 18.55 16.51 14.17 13.61 11.40 10.24 10.50 9.94 10.44
16.80 18.15 14.89 18.26 19.34 22.95 15.90 16.69 13.79 13.57 14.37 19.63 20.67 16.89 12.71 13.27 13.67 15.62 16.62 17.68 18.02 18.50 20.19 18.81 18.21 19.36 18.50 17.18 16.77 16.20 15.23 15.03 15.02 15.64 16.20 15.28 13.16 12.70 13.26 13.58 14.01 13.80 13.04 13.76 14.70 14.50 14.46 13.12 12.91 12.68 10.74 6.31 1.98 1.49
19.95 20.17 20.41 15.38 19.26 20.77 20.43 21.34 21.28 19.53 19.50 21.70 21.72 19.64 14.27 13.36 13.90 12.73 13.31 14.34 16.29 17.36 16.17 17.18 14.95 16.30 15.79 15.88 15.93 17.06 17.65 18.77 18.54 15.79 14.13 13.13 13.43 11.96 11.27 12.72 12.87 13.68 14.83 14.37 14.18 12.17 11.05 10.35 8.19 5.40 2.24 -0.73 -3.48 -4.76
18.16 22.78 19.59 18.02 16.09 17.47 15.74 17.60 15.06 14.02 16.71 16.59 16.08 14.33 12.71 12.71 13.89 14.93 14.31 14.33 14.13 13.47 12.44 13.65 14.20 15.81 14.94 15.41 14.43 13.48 12.72 12.39 14.61 18.46 15.60 14.54 13.22 10.19 10.91 10.92 10.72 11.21 12.30 11.51 9.88 8.21 8.36 4.62 3.66 0.31 -1.04 -2.80 -2.80 -4.51
23.48 20.96 17.13 15.28 13.66 13.03 15.61 16.72 16.73 15.22 13.40 12.57 13.08 12.29 10.90 11.93 13.24 13.18 11.52 11.50 13.15 13.59 13.52 13.26 13.04 14.63 16.33 16.05 15.80 14.79 12.58 10.31 9.48 10.67 12.04 11.20 9.61 9.04 8.74 8.15 8.96 9.49 8.93 7.40 5.57 3.32 1.06 -0.34 -0.74 -2.34 -4.38 -7.46 -10.56 -8.21
20.14 18.38 16.26 12.99 13.54 16.67 18.30 17.40 15.64 13.10 11.91 12.17 10.75 11.40 10.55 12.14 10.77 10.57 9.90 10.29 14.75 12.94 11.38 12.89 11.47 8.86 9.65 10.00 9.89 9.25 9.02 9.02 9.41 9.88 9.58 8.67 8.09 7.99 7.46 7.12 6.85 6.05 4.02 1.99 1.13 0.06 -1.06 -2.40 -4.16 -5.93 -8.06 -10.22 -11.61 -12.34
15.89 15.35 15.15 14.06 13.54 14.42 15.19 16.07 14.17 11.69 11.71 11.52 10.28 9.92 8.47 10.46 8.44 8.52 10.43 8.86 7.47 7.96 6.88 6.33 6.68 7.03 6.86 7.10 7.00 6.85 7.06 7.16 7.30 9.06 7.54 7.37 6.01 5.95 5.12 4.88 3.74 2.54 0.24 -1.40 -2.43 -3.58 -5.44 -7.64 -9.62 -10.78 -11.78 -13.20 -14.47 -14.85
MSLP
1003.72 1004.51 1005.29 1006.01 1006.67 1007.30 1007.91 1008.34 1008.80 1009.33 1009.72 1010.13 1010.52 1010.48 1010.49 1010.55 1010.64 1010.50 1011.92 1011.58 1011.58 1013.47 1014.84 1014.65 1014.70 1015.18 1015.74 1016.07 1016.72 1017.62 1018.04 1017.97 1017.92 1017.90 1017.93 1017.82 1017.66 1017.81 1017.91 1018.12 1018.18 1018.26 1018.26 1018.71 1019.33 1020.12 1021.41 1021.97 1021.82 1022.15 1023.12 1023.56 1024.17 1024.87
1003.49 1004.38 1005.13 1005.98 1006.62 1007.40 1008.04 1008.51 1009.01 1009.59 1009.98 1010.46 1010.59 1010.74 1010.76 1011.20 1010.96 1010.97 1011.82 1011.98 1011.86 1013.12 1015.15 1015.26 1015.18 1015.20 1015.06 1015.53 1016.29 1017.36 1017.65 1017.70 1017.92 1018.10 1018.27 1018.14 1018.21 1018.30 1018.16 1018.43 1018.77 1019.04 1019.21 1019.43 1020.61 1021.40 1022.34 1022.91 1022.98 1023.33 1023.63 1024.27 1024.99 1025.43
1003.25 1004.15 1005.06 1005.90 1006.75 1007.44 1008.18 1008.74 1009.26 1009.72 1010.19 1010.62 1010.94 1010.97 1011.48 1011.30 1011.03 1011.36 1012.02 1012.67 1012.61 1014.30 1015.37 1015.42 1015.64 1015.72 1015.60 1015.62 1015.72 1016.51 1017.62 1017.65 1017.87 1018.07 1018.15 1018.39 1018.42 1018.53 1018.49 1018.95 1019.08 1019.59 1019.80 1020.16 1021.23 1022.31 1022.89 1023.52 1024.02 1024.26 1024.55 1025.02 1025.64 1026.23
1002.86 1004.00 1004.99 1005.92 1006.81 1007.59 1008.33 1009.00 1009.66 1010.08 1010.46 1010.86 1011.21 1011.26 1011.57 1011.62 1011.71 1011.49 1012.58 1013.30 1013.15 1014.20 1015.60 1016.38 1015.83 1016.03 1016.03 1015.87 1015.94 1016.32 1016.99 1017.61 1017.95 1018.15 1018.18 1018.41 1018.43 1018.71 1018.86 1019.12 1019.43 1020.03 1020.27 1020.76 1021.65 1022.43 1023.33 1024.01 1024.43 1024.90 1025.33 1025.79 1026.43 1027.13
1002.81 1003.90 1004.95 1005.93 1006.90 1007.78 1008.57 1009.27 1009.96 1010.39 1010.76 1011.18 1011.41 1011.54 1011.86 1012.20 1011.98 1012.43 1013.12 1013.75 1013.56 1013.93 1015.60 1016.45 1016.32 1016.44 1016.27 1016.24 1016.49 1016.95 1017.19 1017.73 1018.21 1018.36 1018.52 1018.71 1018.75 1018.95 1019.30 1019.63 1019.85 1020.18 1020.42 1020.79 1021.13 1021.71 1022.61 1023.61 1024.48 1024.98 1025.50 1026.23 1026.83 1027.36
1002.82 1003.91 1004.97 1006.06 1007.03 1007.97 1008.77 1009.54 1010.30 1010.86 1011.02 1011.22 1011.45 1012.06 1012.48 1012.60 1012.61 1012.76 1013.77 1013.98 1014.03 1014.17 1015.33 1016.66 1017.10 1016.72 1016.67 1016.72 1017.08 1017.48 1017.81 1018.21 1018.43 1018.60 1018.87 1018.90 1018.99 1019.07 1019.37 1019.73 1020.18 1020.42 1020.70 1020.88 1021.42 1021.99 1022.79 1023.79 1024.77 1025.29 1025.81 1026.57 1027.24 1027.72
1002.93 1004.05 1005.15 1006.22 1007.27 1008.17 1009.03 1009.89 1010.57 1011.02 1011.33 1011.78 1012.13 1012.52 1012.88 1012.89 1012.97 1013.89 1014.51 1014.73 1014.42 1014.49 1015.33 1016.90 1017.23 1017.05 1016.80 1017.09 1017.82 1018.25 1018.41 1018.71 1018.75 1019.09 1019.08 1019.08 1019.10 1019.09 1019.53 1019.70 1020.13 1020.64 1021.07 1021.48 1021.92 1022.56 1023.87 1024.45 1025.08 1025.85 1026.37 1027.09 1027.78 1028.33
1003.20 1004.37 1005.42 1006.53 1007.56 1008.52 1009.39 1010.28 1011.02 1011.39 1011.72 1012.16 1012.59 1012.98 1013.14 1013.32 1013.75 1014.42 1014.82 1014.57 1014.62 1015.11 1015.66 1016.87 1017.61 1017.52 1017.21 1017.87 1018.58 1018.92 1018.90 1019.05 1019.28 1019.44 1019.42 1019.19 1019.37 1019.38 1019.43 1019.75 1020.26 1020.85 1021.49 1022.05 1022.46 1022.72 1023.09 1024.41 1025.54 1026.39 1027.06 1027.65 1028.30 1028.95
1003.57 1004.75 1005.92 1006.95 1007.91 1008.91 1009.85 1010.70 1011.36 1011.84 1012.24 1012.58 1012.95 1013.29 1013.63 1014.41 1014.97 1015.19 1014.98 1014.92 1014.95 1015.49 1016.39 1017.01 1017.44 1017.94 1017.72 1018.53 1018.96 1019.30 1019.39 1019.61 1019.95 1019.62 1019.58 1019.59 1019.44 1019.18 1018.69 1019.43 1020.10 1020.63 1021.14 1021.99 1022.82 1023.34 1024.04 1024.69 1025.76 1026.71 1027.37 1028.03 1028.67 1029.41
1004.31 1005.41 1006.53 1007.53 1008.47 1009.38 1010.35 1011.12 1011.71 1012.28 1012.66 1013.17 1013.59 1014.14 1015.36 1015.46 1015.18 1015.17 1015.42 1015.53 1015.76 1016.25 1016.62 1017.32 1017.84 1018.01 1018.31 1018.90 1019.43 1019.81 1019.90 1020.00 1020.01 1020.08 1019.85 1019.74 1019.20 1018.81 1018.92 1019.23 1019.85 1020.52 1021.14 1021.90 1022.79 1023.87 1024.50 1025.25 1025.94 1026.68 1027.30 1028.12 1028.91 1029.77
1005.06 1006.10 1007.19 1008.14 1009.10 1009.98 1010.83 1011.49 1012.21 1012.82 1013.20 1013.78 1014.57 1015.38 1015.63 1015.46 1015.50 1015.91 1016.51 1016.78 1017.14 1017.29 1017.27 1017.66 1017.84 1017.95 1018.49 1018.69 1019.36 1019.96 1020.02 1020.23 1020.12 1020.21 1019.98 1019.94 1019.44 1018.94 1019.22 1019.60 1020.14 1020.69 1021.29 1021.89 1022.33 1023.13 1024.04 1024.71 1025.67 1026.72 1027.77 1028.62 1029.46 1030.32
1005.81 1006.86 1007.79 1008.74 1009.62 1010.53 1011.44 1012.31 1012.81 1013.24 1013.64 1013.75 1013.98 1014.89 1015.46 1015.84 1016.27 1016.60 1016.95 1017.20 1017.17 1017.31 1017.57 1017.85 1017.97 1018.02 1018.72 1018.73 1019.21 1020.20 1020.14 1020.46 1020.34 1020.35 1020.30 1020.07 1019.18 1019.24 1019.58 1019.94 1020.44 1021.09 1021.77 1022.52 1023.05 1023.71 1024.51 1025.27 1026.11 1027.08 1028.15 1029.14 1030.10 1030.96
1006.56 1007.47 1008.33 1009.18 1010.22 1011.23 1012.18 1012.85 1013.13 1013.37 1013.62 1013.98 1014.42 1015.35 1015.77 1016.54 1016.62 1016.89 1016.95 1017.04 1017.01 1017.31 1017.69 1017.94 1018.27 1018.24 1018.89 1019.03 1019.77 1020.00 1020.48 1020.79 1020.61 1020.45 1020.49 1019.76 1019.44 1019.79 1020.28 1020.65 1021.18 1021.80 1022.44 1023.18 1023.93 1024.59 1025.33 1026.15 1026.89 1027.80 1028.94 1030.00 1030.89 1031.65
1007.29 1008.19 1009.02 1009.94 1010.96 1012.00 1012.99 1013.23 1013.51 1013.78 1013.98 1014.72 1015.44 1016.19 1016.42 1016.87 1016.74 1016.59 1016.49 1016.51 1016.81 1016.95 1017.40 1017.70 1018.16 1018.24 1019.14 1019.53 1020.29 1020.53 1021.11 1020.94 1020.95 1020.99 1020.35 1019.67 1019.70 1020.14 1020.79 1021.30 1021.92 1022.55 1023.15 1023.88 1024.69 1025.50 1026.30 1027.11 1028.11 1029.00 1029.70 1030.58 1031.31 1032.37
1008.14 1009.02 1009.92 1010.97 1011.82 1012.66 1013.24 1013.59 1013.74 1014.05 1014.84 1015.66 1015.84 1016.60 1016.80 1016.77 1016.63 1016.51 1016.52 1016.63 1016.91 1017.11 1017.32 1017.74 1018.22 1018.60 1019.56 1020.03 1020.45 1020.91 1021.28 1021.08 1020.91 1020.36 1020.02 1020.02 1020.38 1020.84 1021.43 1021.95 1022.59 1023.38 1024.15 1024.84 1025.58 1026.39 1027.24 1028.04 1028.88 1029.91 1030.71 1031.16 1031.86 1032.88
1009.05 1010.11 1011.16 1011.85 1012.62 1013.24 1013.54 1013.78 1014.27 1014.91 1015.94 1016.53 1016.99 1017.21 1017.05 1016.92 1016.81 1016.62 1016.51 1016.71 1017.11 1017.12 1017.20 1017.46 1018.57 1019.22 1019.82 1020.05 1020.54 1020.71 1020.83 1020.69 1020.15 1020.07 1020.25 1020.83 1021.15 1021.52 1021.99 1022.59 1023.30 1024.06 1024.76 1025.53 1026.27 1027.03 1027.87 1028.64 1029.30 1030.13 1031.17 1031.67 1032.22 1032.77
1009.63 1010.97 1011.90 1012.67 1013.35 1013.92 1014.15 1014.68 1015.31 1016.10 1016.67 1017.17 1017.82 1017.54 1017.42 1017.33 1017.09 1016.85 1016.70 1016.98 1017.25 1017.24 1017.62 1017.98 1018.75 1019.50 1019.91 1020.19 1020.57 1020.58 1020.39 1019.90 1019.78 1020.11 1020.63 1021.38 1021.71 1022.07 1022.65 1023.27 1023.99 1024.66 1025.42 1026.12 1026.84 1027.61 1028.35 1029.21 1029.84 1030.53 1031.21 1031.78 1032.25 1032.57
1010.70 1012.07 1012.80 1013.47 1013.95 1014.42 1015.20 1015.61 1016.37 1016.82 1017.45 1017.96 1018.09 1018.03 1017.78 1017.68 1017.42 1017.32 1017.34 1017.25 1017.23 1017.23 1017.53 1018.10 1018.48 1019.40 1020.00 1020.09 1020.29 1019.74 1019.60 1019.80 1020.28 1020.63 1021.31 1021.91 1022.28 1022.56 1023.00 1023.58 1024.32 1024.93 1025.65 1026.42 1027.09 1027.88 1028.68 1029.26 1029.67 1030.14 1030.64 1031.34 1031.92 1032.21
1011.84 1012.85 1013.43 1013.83 1014.20 1015.01 1016.02 1016.66 1016.84 1017.37 1017.96 1018.14 1018.35 1018.28 1018.17 1018.07 1018.02 1017.93 1017.75 1017.53 1017.39 1017.39 1017.75 1018.36 1018.96 1019.50 1019.66 1019.62 1019.38 1019.51 1019.71 1019.94 1020.45 1021.00 1021.82 1022.48 1022.76 1023.08 1023.48 1024.01 1024.63 1025.25 1025.82 1026.44 1027.13 1027.62 1028.17 1028.65 1028.92 1029.49 1030.03 1030.63 1030.92 1031.22
1012.74 1013.54 1013.98 1014.12 1014.21 1015.36 1016.52 1017.25 1017.29 1017.54 1018.18 1018.33 1018.24 1018.45 1018.54 1018.56 1018.55 1018.46 1018.24 1018.02 1017.95 1018.07 1018.52 1018.94 1019.20 1019.10 1019.22 1019.04 1019.09 1019.23 1019.54 1020.00 1020.62 1021.19 1021.84 1022.56 1023.12 1023.46 1023.89 1024.26 1024.75 1025.37 1026.05 1026.74 1027.19 1027.63 1028.19 1028.71 1028.98 1029.31 1029.68 1029.98 1030.30 1030.49
1013.78 1014.59 1014.56 1014.67 1015.57 1016.09 1017.01 1017.56 1017.74 1018.13 1018.22 1018.28 1018.39 1018.43 1018.82 1018.78 1018.84 1018.81 1018.76 1018.67 1018.70 1018.98 1019.11 1018.78 1018.69 1018.87 1019.27 1019.48 1019.55 1019.72 1019.98 1020.21 1020.38 1020.74 1021.25 1022.25 1023.16 1023.52 1024.03 1024.41 1024.85 1025.27 1025.69 1026.22 1026.67 1027.30 1027.71 1027.90 1028.34 1028.87 1029.32 1029.62 1029.80 1029.99
1015.08 1014.98 1015.46 1015.80 1016.67 1017.17 1017.76 1018.01 1018.14 1018.41 1018.53 1018.71 1018.71 1018.80 1019.04 1019.20 1019.21 1019.28 1019.31 1019.36 1019.33 1019.13 1019.27 1019.30 1019.24 1019.26 1019.54 1019.74 1019.94 1020.17 1020.38 1020.55 1020.85 1021.37 1021.71 1022.17 1022.89 1023.43 1023.83 1024.17 1024.60 1024.99 1025.40 1025.77 1026.14 1026.60 1027.07 1027.58 1028.08 1028.56 1029.04 1029.37 1029.87 1029.95
1015.24 1015.58 1016.41 1017.04 1017.82 1018.25 1018.94 1018.35 1018.49 1018.74 1019.01 1019.06 1019.15 1019.35 1019.40 1019.39 1019.37 1019.38 1019.73 1019.82 1019.81 1019.96 1019.89 1019.75 1019.70 1019.70 1019.83 1020.17 1020.34 1020.58 1020.81 1020.90 1021.30 1021.73 1022.08 1022.29 1022.51 1022.88 1023.31 1023.90 1024.27 1024.58 1025.05 1025.57 1025.94 1026.39 1026.92 1027.43 1027.93 1028.41 1028.89 1029.29 1029.55 1029.95
1015.84 1016.88 1017.84 1018.40 1018.75 1019.45 1019.21 1018.82 1018.84 1019.04 1019.28 1019.39 1019.60 1019.77 1019.65 1019.35 1019.25 1019.57 1019.99 1020.13 1020.39 1020.40 1020.17 1020.06 1020.04 1020.08 1020.28 1020.46 1020.73 1021.01 1021.11 1021.28 1021.64 1022.10 1022.45 1022.58 1022.80 1023.16 1023.38 1023.69 1024.17 1024.51 1024.66 1025.04 1025.76 1026.34 1026.92 1027.44 1027.85 1028.35 1028.78 1029.21 1029.58 1029.83
1017.14 1018.62 1018.97 1019.52 1019.47 1019.60 1019.70 1019.45 1019.21 1019.48 1019.85 1019.95 1020.04 1019.96 1019.52 1019.50 1019.82 1020.41 1020.65 1020.78 1020.75 1020.79 1020.71 1020.56 1020.39 1020.35 1020.47 1020.73 1021.16 1021.37 1021.50 1021.65 1021.92 1022.35 1022.80 1022.89 1023.14 1023.49 1023.81 1024.11 1024.48 1024.75 1024.94 1025.26 1025.97 1026.45 1027.01 1027.44 1027.89 1028.36 1028.85 1029.23 1029.53 1029.96
1018.31 1019.10 1019.51 1019.29 1019.48 1019.60 1019.79 1020.04 1019.85 1019.88 1020.02 1020.21 1020.17 1020.04 1020.04 1020.33 1020.80 1021.06 1021.31 1021.72 1021.81 1021.60 1021.59 1021.38 1021.05 1020.84 1020.91 1021.09 1021.36 1021.73 1021.86 1021.95 1022.27 1022.70 1023.16 1023.20 1023.28 1023.38 1023.83 1024.28 1024.77 1025.18 1025.22 1025.33 1025.78 1026.33 1026.87 1027.44 1027.96 1028.54 1029.07 1029.61 1029.91 1030.24
1019.03 1019.34 1019.15 1018.91 1019.01 1019.32 1019.77 1019.88 1019.85 1020.05 1020.20 1020.26 1020.15 1020.62 1020.87 1021.37 1021.52 1021.84 1022.28 1022.59 1022.62 1022.55 1022.36 1022.01 1021.63 1021.30 1021.27 1021.70 1022.13 1022.38 1022.50 1022.60 1022.84 1023.29 1023.70 1023.89 1024.00 1023.97 1024.10 1024.51 1024.92 1025.10 1025.32 1025.56 1025.84 1026.12 1026.72 1027.49 1028.21 1028.97 1029.66 1030.24 1030.62 1030.85
1018.63 1018.81 1019.02 1019.10 1019.26 1019.33 1019.71 1020.12 1020.25 1020.11 1020.14 1019.91 1020.30 1020.94 1021.41 1021.85 1022.48 1022.88 1023.09 1023.23 1023.27 1023.02 1022.70 1022.58 1022.43 1022.21 1022.24 1022.57 1022.85 1023.11 1023.47 1023.72 1023.88 1024.06 1024.25 1024.71 1025.07 1025.20 1025.23 1025.33 1025.50 1025.62 1025.87 1026.12 1026.37 1026.67 1027.19 1027.91 1028.66 1029.50 1030.30 1031.12 1031.85 1032.29
1018.71 1018.74 1018.96 1019.34 1019.51 1019.65 1019.84 1020.07 1020.14 1020.35 1020.49 1020.45 1020.87 1021.51 1022.33 1022.99 1023.62 1023.89 1023.85 1023.82 1023.57 1023.36 1023.18 1023.21 1023.37 1023.32 1023.39 1023.54 1023.73 1023.84 1024.05 1024.21 1024.20 1024.40 1024.74 1025.39 1025.96 1026.61 1026.59 1026.50 1026.58 1026.72 1026.91 1027.19 1027.46 1027.63 1028.15 1028.85 1029.83 1030.85 1031.67 1032.37 1033.10 1033.45
1018.54 1018.62 1019.06 1019.42 1019.86 1020.15 1020.35 1020.64 1020.98 1021.25 1021.36 1021.59 1021.91 1022.58 1023.28 1023.94 1024.43 1024.63 1024.43 1024.19 1023.94 1023.88 1023.91 1023.84 1023.86 1023.85 1024.12 1024.28 1024.64 1024.94 1025.08 1025.00 1024.76 1024.78 1025.03 1025.63 1026.41 1027.20 1027.36 1027.44 1027.58 1027.77 1028.02 1028.35 1028.84 1029.40 1029.92 1030.55 1031.36 1032.41 1033.02 1033.47 1033.83 1034.23
1018.43 1018.81 1019.35 1019.76 1020.18 1020.60 1020.81 1021.11 1021.38 1021.74 1022.13 1022.37 1022.68 1023.08 1023.79 1024.28 1024.72 1025.04 1025.06 1024.90 1024.60 1024.49 1024.48 1024.53 1024.55 1024.65 1024.68 1025.07 1025.24 1025.44 1025.72 1025.89 1025.69 1025.51 1025.53 1026.14 1027.03 1027.64 1028.05 1028.31 1028.54 1028.72 1029.04 1029.48 1030.01 1030.63 1031.32 1032.01 1032.64 1033.33 1033.95 1034.41 1034.80 1035.09
1018.97 1019.30 1019.76 1020.28 1020.75 1021.02 1021.17 1021.35 1021.70 1022.16 1022.62 1022.92 1023.39 1023.71 1024.28 1024.54 1025.11 1025.63 1026.00 1025.55 1025.16 1025.19 1025.42 1025.38 1025.51 1025.97 1026.03 1026.07 1026.11 1026.14 1026.22 1026.62 1026.70 1026.85 1026.95 1027.41 1028.05 1028.56 1028.89 1029.20 1029.50 1029.79 1030.17 1030.78 1031.40 1031.99 1032.48 1033.02 1033.72 1034.33 1034.89 1035.38 1035.78 1036.13
1020.08 1020.32 1020.62 1020.94 1021.33 1021.49 1021.69 1021.76 1022.06 1022.63 1022.99 1023.32 1023.87 1024.27 1024.74 1025.09 1025.86 1026.53 1026.72 1026.69 1026.57 1026.42 1026.57 1026.76 1026.94 1027.07 1027.17 1027.21 1027.33 1027.47 1027.62 1027.90 1028.05 1028.09 1028.42 1028.76 1029.10 1029.48 1029.88 1030.22 1030.55 1030.96 1031.42 1032.11 1032.75 1033.25 1033.79 1034.33 1034.86 1035.40 1035.84 1036.24 1036.67 1036.98
Wind_Speed
20 19 20 17 19 18 15 15 16 15 13 10 7 6 6 6 5 4 1 3 3 4 2 2 3 5 3 2 4 3 2 2 2 3 2 2 2 2 2 2 2 1 1 2 1 1 3 9 1 1 6 8 7 7
19 20 19 19 20 18 16 15 16 15 13 10 8 7 7 4 7 3 4 3 3 7 4 2 3 3 3 6 6 2 3 3 2 3 1 3 2 1 3 2 2 1 2 2 2 3 3 4 8 6 5 9 6 8
23 21 21 19 21 20 18 16 15 14 12 10 8 8 6 6 8 4 3 2 4 4 4 4 4 4 3 4 2 5 0 3 3 1 3 2 3 2 2 1 3 2 1 3 4 4 5 6 7 6 7 10 10 10
24 24 22 22 21 19 18 17 15 14 12 10 10 10 8 8 7 7 4 2 3 4 5 1 1 3 1 3 5 4 6 4 4 1 2 2 2 1 2 2 1 1 1 5 4 8 6 3 6 9 11 12 13 11
24 25 23 22 23 21 19 18 15 11 12 12 12 12 11 12 17 10 4 3 2 4 5 3 0 5 3 5 8 5 5 4 2 2 2 1 2 2 2 2 1 2 4 3 3 9 3 5 8 8 10 9 9 11
25 25 25 24 22 21 20 20 20 14 12 12 14 14 13 8 4 3 5 3 4 3 5 3 2 1 3 6 8 6 4 3 2 2 2 1 0 1 2 2 3 3 1 0 2 6 5 11 8 5 9 8 9 10
26 26 25 25 23 22 21 20 17 17 15 17 17 13 10 10 5 5 2 1 4 2 4 4 3 2 2 3 3 3 3 2 2 1 1 1 1 2 2 2 8 5 6 9 12 13 8 9 5 7 11 11 12 11
27 26 26 25 25 24 23 21 17 15 18 19 17 17 15 14 8 5 3 3 2 4 4 4 2 2 4 2 2 2 2 2 4 1 1 1 1 0 3 4 9 9 11 11 5 2 8 11 13 11 10 11 10 8
28 27 26 23 26 25 23 20 18 19 19 18 15 10 5 6 3 1 1 5 2 4 4 2 4 3 2 2 1 2 2 2 2 0 1 1 1 4 3 14 13 14 10 11 8 10 12 14 13 12 11 9 9 8
28 28 27 26 25 26 24 22 20 19 20 13 6 5 3 1 1 3 5 4 5 3 3 3 1 4 3 0 2 1 2 1 1 1 1 1 3 1 2 10 12 12 13 15 13 9 10 11 12 13 11 8 7 8
27 27 26 26 26 26 24 22 21 20 8 3 3 2 1 2 2 3 2 3 0 2 1 2 1 4 1 3 3 0 2 0 1 1 1 1 3 3 5 9 10 11 13 12 5 8 10 12 13 12 10 9 9 9
28 28 27 27 25 26 24 23 17 4 2 4 5 4 2 2 2 3 1 1 1 3 2 4 2 2 2 1 3 1 2 1 2 1 1 3 4 2 5 9 11 11 11 9 7 10 10 11 11 11 10 9 9 8
28 27 27 26 29 27 26 16 9 14 6 2 4 3 2 1 3 4 6 3 3 4 4 4 3 2 2 3 3 2 2 2 0 1 3 5 1 3 6 7 9 8 10 9 9 9 10 11 10 10 10 8 10 8
28 26 26 28 28 27 22 16 13 5 4 4 3 5 2 1 2 3 1 2 1 3 5 3 4 2 1 4 1 4 0 0 2 1 5 2 3 5 7 6 8 8 8 9 9 9 9 9 7 6 7 8 9 8
26 26 26 27 27 22 17 12 7 3 3 3 3 3 1 2 0 1 1 2 2 3 3 3 4 3 2 4 1 3 2 2 4 4 3 2 2 6 7 5 7 7 7 7 7 8 8 8 8 7 5 6 7 7
28 24 16 26 23 17 11 8 5 3 3 3 4 2 0 1 1 1 1 2 2 3 2 3 4 4 2 3 2 3 5 5 3 3 1 3 3 5 6 5 6 6 7 7 7 8 8 9 9 10 7 6 5 7
14 5 24 24 21 13 11 5 3 4 3 3 2 1 1 2 1 2 2 2 2 1 3 3 4 3 3 2 1 3 4 3 3 1 1 2 4 6 5 6 6 7 8 8 7 7 7 7 9 9 9 6 6 6
12 19 27 24 11 6 3 4 3 3 4 2 2 1 1 1 1 3 2 2 1 2 1 2 4 3 4 5 3 4 3 2 3 2 2 1 2 4 6 8 7 7 8 7 7 8 8 9 9 6 6 8 6 5
17 16 22 15 6 5 3 3 2 3 1 1 1 0 1 1 2 1 1 2 2 2 4 2 4 2 3 3 4 2 2 3 2 1 0 2 3 4 5 6 7 7 9 9 10 8 8 9 6 6 6 7 6 5
24 19 14 10 6 3 4 2 1 2 1 1 1 2 2 2 1 2 2 2 2 1 2 1 3 3 4 3 3 2 2 4 4 2 1 1 1 5 7 8 7 8 7 7 6 7 6 5 4 6 6 6 5 5
11 5 10 5 4 4 3 1 3 2 1 2 1 2 2 1 2 3 2 2 2 1 2 3 3 1 1 1 1 1 2 4 3 1 2 3 3 4 5 5 7 7 6 7 7 7 7 7 6 6 6 6 5 3
2 5 4 4 4 4 4 3 2 1 3 1 2 2 2 1 1 0 1 2 2 2 1 1 2 1 1 1 1 0 1 4 5 4 6 7 5 5 6 6 7 7 6 7 7 7 7 5 5 5 5 4 2 3
6 5 4 4 5 5 1 2 3 2 3 1 1 2 2 1 1 1 1 2 2 1 2 2 1 1 2 2 3 3 3 4 3 2 3 2 3 4 5 7 5 7 6 6 5 5 5 5 4 4 3 3 3 3
4 4 4 3 3 1 2 1 2 2 1 1 1 1 2 1 2 1 2 2 2 2 2 3 0 2 3 2 1 1 1 2 4 3 2 3 3 2 4 5 5 4 3 5 6 4 4 4 4 4 4 4 3 2
5 4 6 4 1 4 2 2 2 2 2 3 3 2 2 1 2 2 3 1 3 2 3 3 1 1 1 1 0 1 1 3 3 3 1 1 3 4 3 3 2 2 3 6 5 5 4 4 4 5 5 4 4 3
3 2 4 4 2 3 4 3 3 5 3 4 4 1 1 2 2 5 2 1 2 3 4 4 4 1 1 1 1 2 1 2 3 3 2 2 3 4 5 6 4 3 2 2 5 6 5 4 6 7 4 3 3 3
2 2 2 1 2 2 1 0 1 2 3 4 3 3 3 2 6 2 0 1 2 2 5 5 5 3 0 2 3 3 4 4 4 5 5 4 4 2 3 4 4 1 4 4 3 4 7 7 6 5 6 5 5 4
4 3 4 3 1 1 3 3 4 5 4 2 3 3 5 6 2 1 1 1 3 5 3 3 4 3 4 4 4 5 6 5 7 7 7 8 7 6 6 6 6 9 6 5 5 5 6 7 7 7 8 8 6 5
2 2 3 2 1 1 2 3 2 2 2 1 2 2 2 2 2 2 2 4 4 3 1 2 4 4 5 6 5 5 4 2 3 4 6 4 3 4 4 5 6 6 6 9 13 10 11 9 10 10 9 8 6 6
3 2 2 3 4 5 2 0 2 1 2 2 2 3 2 1 1 2 3 3 3 2 1 1 2 3 4 4 5 6 5 4 3 2 4 4 4 5 4 5 6 6 7 8 9 11 13 11 10 6 7 6 5 5
3 2 3 2 1 1 1 2 2 2 2 2 2 2 2 2 1 2 4 4 2 2 3 3 5 4 4 4 3 4 3 5 5 6 7 9 7 6 6 6 5 6 6 8 7 8 8 7 7 8 8 8 7 6
2 2 3 3 1 1 2 1 1 2 1 1 1 2 1 1 2 3 6 5 2 4 4 4 5 4 4 4 5 6 9 5 5 6 9 8 8 7 6 6 6 7 8 8 8 7 9 9 7 7 7 7 6 6
2 2 2 2 2 2 1 1 1 1 1 1 1 1 1 1 2 2 2 5 4 3 4 4 5 6 8 8 7 7 9 8 12 13 13 12 10 9 6 6 6 7 9 8 8 8 9 11 8 8 7 6 5 5
Wind_Direction
175 169 170 169 164 157 162 158 146 144 145 149 140 102 73 68 50 75 179 5 108 89 54 31 126 127 96 106 138 160 107 357 68 85 140 144 118 94 136 40 311 23 331 83 200 129 179 0 181 308 97 99 107 96
180 169 169 161 157 157 158 157 146 146 145 144 121 100 86 79 52 80 69 1 358 78 109 23 49 36 88 159 128 94 128 120 146 109 143 119 127 67 140 193 23 261 354 128 13 96 82 24 80 78 128 131 127 123
171 162 164 159 159 156 157 157 147 141 139 137 125 117 107 60 50 98 102 2 53 84 63 48 19 16 64 79 137 116 246 142 128 170 134 110 109 167 141 184 157 83 25 90 176 136 114 111 87 87 103 115 117 123
166 163 157 154 156 153 153 149 150 140 137 136 127 116 105 81 71 74 73 330 64 107 102 42 4 40 54 95 65 67 119 79 91 92 88 103 115 228 123 105 146 26 97 124 81 123 113 108 125 125 116 116 112 108
160 158 156 154 155 154 152 151 141 138 141 137 126 115 106 110 94 84 84 34 32 105 131 133 81 14 110 97 83 73 84 92 78 85 68 92 107 149 82 103 161 203 160 179 203 165 139 156 158 140 122 117 120 119
162 159 155 149 147 149 150 152 149 159 149 132 111 113 109 93 63 55 47 8 11 31 100 99 308 55 93 91 80 66 62 73 70 85 93 101 280 107 122 167 142 161 163 223 164 117 94 122 123 117 113 114 107 101
149 152 147 146 146 144 145 141 147 142 134 120 108 98 95 88 71 61 112 228 6 35 90 104 101 20 32 89 52 52 43 65 62 96 77 100 117 78 142 210 169 140 114 114 116 111 97 148 153 130 116 108 97 94
148 143 142 144 143 140 138 137 143 137 121 113 105 97 89 81 91 44 352 5 20 85 64 106 94 102 3 67 79 356 65 37 30 68 133 126 136 125 230 148 146 145 130 136 128 31 136 121 124 122 119 122 114 114
142 139 139 140 145 141 139 142 143 133 122 117 109 90 64 38 55 117 311 27 22 100 108 96 135 155 14 77 66 60 30 75 329 95 78 285 142 227 202 167 166 160 161 149 116 118 132 139 139 141 143 144 141 142
136 137 138 136 137 140 144 147 139 134 126 107 53 52 49 332 115 62 7 23 19 354 44 86 333 117 98 112 76 108 12 92 152 55 22 225 261 268 151 177 166 167 146 144 131 143 144 149 157 161 164 159 158 158
135 134 134 137 139 138 140 137 136 132 97 55 80 77 212 244 55 36 59 76 63 49 50 109 156 127 329 113 130 300 136 52 116 116 271 284 268 220 168 166 165 159 159 170 148 159 170 166 164 162 158 154 152 154
139 141 139 138 140 137 138 140 132 89 148 169 116 117 98 84 90 95 82 123 206 165 139 138 160 104 111 110 105 182 105 31 152 104 226 268 253 176 164 162 161 162 152 140 139 147 151 157 162 155 151 148 148 139
134 135 136 136 135 135 137 138 96 121 101 64 68 85 94 21 104 147 167 182 181 162 165 167 131 107 112 65 69 109 98 191 314 149 235 237 246 183 167 142 136 142 136 127 125 130 133 134 137 145 144 143 139 127
130 130 131 133 134 131 135 140 130 94 65 63 96 116 119 143 206 187 197 158 141 131 147 127 100 95 82 68 108 100 104 134 74 225 238 255 242 178 166 146 138 154 141 139 137 133 130 129 118 110 122 138 132 133
124 125 128 131 130 131 122 105 92 57 67 72 47 89 101 225 247 170 151 150 115 148 136 106 73 82 46 93 48 109 74 219 210 228 235 268 273 165 158 144 140 143 141 139 139 135 131 129 131 123 131 131 123 131
120 113 128 130 128 117 99 66 42 70 59 66 52 92 32 144 102 117 128 91 149 153 128 57 97 66 58 126 117 196 149 222 247 222 266 316 211 174 156 150 139 128 135 135 135 136 136 144 150 145 141 148 151 157
96 100 128 117 111 94 52 68 48 48 89 64 61 345 65 55 82 66 33 65 126 86 102 111 88 173 108 88 197 189 204 219 224 222 287 253 221 185 152 135 139 139 139 141 136 142 138 129 125 140 158 175 175 183
109 122 119 117 117 61 34 47 76 63 60 41 85 0 31 20 45 58 30 26 84 64 79 119 129 106 155 166 228 238 236 244 231 276 342 273 230 175 166 157 147 147 143 141 141 132 137 145 160 176 161 161 174 196
122 126 132 133 126 110 78 33 34 85 51 12 272 335 38 58 48 37 29 12 38 77 105 57 83 170 218 213 209 222 232 211 206 155 46 278 234 173 145 128 134 141 149 154 159 165 168 177 175 166 165 168 192 196
111 96 84 69 62 79 77 45 9 98 117 253 59 65 67 57 17 9 16 34 58 88 91 170 210 212 193 219 196 192 170 151 142 151 199 171 165 152 161 162 165 148 141 144 147 148 156 166 175 176 180 181 186 207
73 31 46 53 46 54 81 63 55 52 107 67 351 59 68 39 33 27 46 353 69 132 215 232 230 239 127 44 62 88 158 170 182 179 157 160 175 165 157 149 145 156 160 168 171 175 180 190 178 179 180 197 214 231
70 50 62 30 68 45 70 22 91 56 52 46 33 35 29 14 21 347 132 67 239 260 210 292 325 345 180 215 162 128 176 130 104 98 83 114 140 165 176 171 163 171 176 180 182 183 188 187 173 178 192 205 193 202
75 43 44 39 70 45 29 304 69 35 97 179 65 34 325 318 235 151 44 248 270 298 312 321 334 332 113 101 105 84 111 130 134 141 144 131 135 139 146 167 174 165 172 190 186 175 180 166 161 170 162 158 164 165
52 57 63 49 61 98 13 89 115 121 113 130 97 284 255 224 139 57 282 255 305 317 352 357 20 71 66 69 86 152 112 120 116 106 131 137 132 146 162 164 170 186 173 148 165 163 155 164 151 163 161 154 168 178
76 326 91 359 69 90 73 16 168 106 151 189 191 253 186 153 172 211 247 296 343 26 3 351 1 15 172 141 106 128 103 155 152 140 164 141 115 114 105 108 122 155 142 130 147 160 159 161 166 160 163 175 168 174
87 256 119 178 224 128 180 131 190 191 148 168 216 236 85 121 203 234 219 321 305 356 3 345 331 319 57 36 132 167 176 151 122 103 136 169 165 154 149 150 152 164 193 139 140 162 167 165 165 161 151 134 119 122
86 249 211 252 121 137 65 103 103 113 174 202 198 161 120 182 234 229 86 33 334 339 317 322 312 304 140 114 82 52 55 58 63 93 88 65 50 57 139 145 161 128 148 155 154 163 158 156 145 132 122 97 71 71
194 157 158 211 168 182 171 170 180 206 225 209 119 176 188 197 211 54 319 343 329 317 343 11 13 24 75 85 99 102 84 93 98 105 100 68 50 44 53 67 69 81 82 76 95 100 113 124 129 124 112 103 88 53
210 221 111 132 132 220 229 217 222 73 6 240 203 166 142 56 27 331 307 318 304 320 41 67 45 56 72 72 62 65 81 98 116 105 100 105 88 46 25 73 79 76 79 80 73 79 84 88 94 99 98 100 96 81
242 153 131 145 172 219 225 137 159 166 38 68 99 99 81 80 36 341 337 351 21 53 57 69 122 109 100 101 101 73 39 26 15 118 140 146 131 128 110 95 90 82 86 91 93 91 83 87 89 79 87 82 76 77
123 106 94 92 183 221 177 122 104 83 62 72 26 95 118 137 137 38 16 340 349 99 88 77 66 50 105 107 108 112 88 22 34 62 86 101 109 108 101 93 90 88 90 95 96 98 101 89 94 97 91 86 72 72
62 124 140 161 182 118 162 160 126 100 93 100 86 103 128 137 107 29 2 340 44 75 52 71 88 68 49 76 69 62 73 86 75 82 91 96 96 96 95 90 86 88 88 88 91 96 96 99 96 93 94 88 80 72
87 75 82 112 134 175 156 139 75 105 80 97 91 71 55 58 112 48 25 23 29 65 87 79 73 68 63 65 71 74 70 73 74 76 76 81 86 91 88 83 84 87 90 91 91 99 98 102 98 97 93 91 84 73